• In Belgium
  • List of Countries
  • For 7 days
  • Water Temperature
  • Satellite Maps
  • Weather Map
  • Weather Widgets
  • user-avatar
    Login

    Hourly Weather Kendale Lakes

    Today, 17 January, Wednesday

    Time Temperature Precipitation Wind Pressure Humidity
    00:00 +17°C° 0 mm 5 mps 767 mmHg 72%
    01:00 +17°C° 0 mm 5 mps 767 mmHg 75%
    02:00 +18°C° 0 mm 4 mps 766 mmHg 77%
    03:00 +18°C° 0 mm 4 mps 766 mmHg 79%
    04:00 +18°C° 0 mm 4 mps 766 mmHg 81%
    05:00 +17°C° 0 mm 4 mps 766 mmHg 82%
    06:00 +17°C° 0 mm 4 mps 766 mmHg 83%
    07:00 +17°C° 0 mm 4 mps 766 mmHg 84%
    08:00 +17°C° 0 mm 5 mps 767 mmHg 79%
    09:00 +19°C° 0 mm 5 mps 767 mmHg 73%
    10:00 +20°C° 0 mm 5 mps 767 mmHg 68%
    11:00 +22°C° 0 mm 5 mps 767 mmHg 58%
    12:00 +23°C° 0 mm 5 mps 767 mmHg 49%
    13:00 +25°C° 0 mm 5 mps 767 mmHg 40%
    14:00 +25°C° 0 mm 5 mps 766 mmHg 37%
    15:00 +25°C° 0 mm 5 mps 766 mmHg 35%
    16:00 +25°C° 0 mm 5 mps 765 mmHg 33%
    17:00 +23°C° 0 mm 5 mps 766 mmHg 38%
    18:00 +21°C° 0 mm 5 mps 766 mmHg 44%
    19:00 +20°C° 0 mm 6 mps 767 mmHg 49%
    20:00 +17°C° 0 mm 6 mps 767 mmHg 55%
    21:00 +16°C° 0 mm 7 mps 767 mmHg 61%
    22:00 +13°C° 0 mm 8 mps 768 mmHg 66%
    23:00 +12°C° 0 mm 8 mps 768 mmHg 64%

    Tomorrow, 18 January, Thursday

    Time Temperature Precipitation Wind Pressure Humidity
    00:00 +11°C° 0 mm 7 mps 768 mmHg 61%
    01:00 +11°C° 0 mm 7 mps 768 mmHg 58%
    02:00 +10°C° 0 mm 7 mps 768 mmHg 57%
    03:00 +9°C° 0 mm 7 mps 767 mmHg 56%
    04:00 +8°C° 0 mm 7 mps 767 mmHg 54%
    05:00 +6°C° 0 mm 7 mps 768 mmHg 47%
    06:00 +5°C° 0 mm 7 mps 768 mmHg 41%
    07:00 +4°C° 0 mm 7 mps 768 mmHg 34%
    08:00 +5°C° 0 mm 7 mps 769 mmHg 33%
    09:00 +6°C° 0 mm 7 mps 769 mmHg 31%
    10:00 +9°C° 0 mm 7 mps 770 mmHg 30%
    11:00 +11°C° 0 mm 7 mps 769 mmHg 32%
    12:00 +14°C° 0 mm 7 mps 769 mmHg 35%
    13:00 +16°C° 0 mm 7 mps 769 mmHg 37%
    14:00 +16°C° 0 mm 7 mps 768 mmHg 41%
    15:00 +16°C° 0 mm 7 mps 768 mmHg 45%
    16:00 +16°C° 0 mm 7 mps 767 mmHg 50%
    17:00 +15°C° 0 mm 6 mps 767 mmHg 55%
    18:00 +14°C° 0 mm 6 mps 768 mmHg 60%
    19:00 +13°C° 0 mm 5 mps 768 mmHg 65%
    20:00 +13°C° 0 mm 5 mps 768 mmHg 66%
    21:00 +12°C° 0 mm 5 mps 768 mmHg 68%
    22:00 +12°C° 0 mm 5 mps 769 mmHg 69%
    23:00 +12°C° 0 mm 4 mps 769 mmHg 70%

    Day after tomorrow, 19 January, Friday

    Time Temperature Precipitation Wind Pressure Humidity
    00:00 +11°C° 0 mm 4 mps 768 mmHg 72%
    01:00 +11°C° 0 mm 4 mps 768 mmHg 73%
    02:00 +11°C° 0 mm 4 mps 768 mmHg 74%
    03:00 +11°C° 0 mm 4 mps 768 mmHg 76%
    04:00 +11°C° 0 mm 4 mps 767 mmHg 78%
    05:00 +11°C° 0 mm 4 mps 767 mmHg 78%
    06:00 +10°C° 0 mm 4 mps 768 mmHg 79%
    07:00 +10°C° 0 mm 4 mps 768 mmHg 80%
    08:00 +12°C° 0 mm 4 mps 768 mmHg 76%
    09:00 +13°C° 0 mm 4 mps 769 mmHg 71%
    10:00 +15°C° 0 mm 4 mps 769 mmHg 67%
    11:00 +17°C° 0 mm 4 mps 769 mmHg 63%
    12:00 +19°C° 0 mm 4 mps 768 mmHg 59%
    13:00 +20°C° 0 mm 4 mps 768 mmHg 54%
    14:00 +20°C° 0 mm 4 mps 767 mmHg 54%
    15:00 +20°C° 0 mm 4 mps 767 mmHg 54%
    16:00 +20°C° 0 mm 4 mps 766 mmHg 54%
    17:00 +20°C° 0 mm 4 mps 766 mmHg 58%
    18:00 +19°C° 0 mm 4 mps 767 mmHg 62%
    19:00 +18°C° 0 mm 4 mps 767 mmHg 65%
    20:00 +17°C° 0 mm 4 mps 767 mmHg 67%
    21:00 +17°C° 0 mm 4 mps 767 mmHg 68%
    22:00 +17°C° 0 mm 4 mps 768 mmHg 69%
    23:00 +17°C° 0 mm 4 mps 767 mmHg 70%

    20 January, Saturday

    Time Temperature Precipitation Wind Pressure Humidity
    00:00 +17°C° 0 mm 4 mps 767 mmHg 71%
    01:00 +17°C° 0 mm 4 mps 767 mmHg 71%
    02:00 +17°C° 0 mm 4 mps 766 mmHg 72%
    03:00 +17°C° 0 mm 4 mps 766 mmHg 72%
    04:00 +17°C° 0 mm 4 mps 766 mmHg 72%
    05:00 +17°C° 0 mm 4 mps 766 mmHg 73%
    06:00 +17°C° 0 mm 4 mps 766 mmHg 74%
    07:00 +17°C° 0 mm 4 mps 766 mmHg 76%
    08:00 +19°C° 0.1 mm 5 mps 767 mmHg 72%
    09:00 +20°C° 0.1 mm 5 mps 767 mmHg 69%
    10:00 +22°C° 0.1 mm 6 mps 768 mmHg 66%
    11:00 +22°C° 0.1 mm 5 mps 767 mmHg 65%
    12:00 +22°C° 0.1 mm 5 mps 767 mmHg 64%
    13:00 +22°C° 0.1 mm 5 mps 766 mmHg 64%
    14:00 +22°C° 0.1 mm 4 mps 766 mmHg 64%
    15:00 +23°C° 0.1 mm 4 mps 766 mmHg 64%
    16:00 +24°C° 0.1 mm 3 mps 765 mmHg 65%
    17:00 +22°C° 0.5 mm 4 mps 766 mmHg 70%
    18:00 +21°C° 0.5 mm 4 mps 766 mmHg 75%
    19:00 +20°C° 0.5 mm 5 mps 766 mmHg 80%
    20:00 +20°C° 0 mm 4 mps 766 mmHg 81%
    21:00 +20°C° 0 mm 4 mps 766 mmHg 81%
    22:00 +20°C° 0 mm 4 mps 767 mmHg 81%
    23:00 +20°C° 0 mm 4 mps 766 mmHg 82%

    21 January, Sunday

    Time Temperature Precipitation Wind Pressure Humidity
    00:00 +20°C° 0 mm 4 mps 766 mmHg 83%
    01:00 +20°C° 0 mm 4 mps 766 mmHg 84%
    02:00 +20°C° 0 mm 4 mps 765 mmHg 85%
    03:00 +20°C° 0 mm 4 mps 765 mmHg 86%
    04:00 +20°C° 0 mm 4 mps 765 mmHg 86%
    05:00 +20°C° 0 mm 4 mps 765 mmHg 87%
    06:00 +19°C° 0 mm 4 mps 765 mmHg 88%
    07:00 +19°C° 0 mm 4 mps 765 mmHg 88%
    08:00 +21°C° 0 mm 5 mps 765 mmHg 82%
    09:00 +23°C° 0 mm 5 mps 766 mmHg 75%
    10:00 +25°C° 0 mm 5 mps 766 mmHg 68%
    11:00 +26°C° 0 mm 5 mps 765 mmHg 65%
    12:00 +26°C° 0 mm 5 mps 765 mmHg 62%
    13:00 +27°C° 0 mm 5 mps 764 mmHg 60%
    14:00 +27°C° 0 mm 5 mps 764 mmHg 61%
    15:00 +27°C° 0 mm 5 mps 763 mmHg 62%
    16:00 +26°C° 0 mm 5 mps 763 mmHg 63%
    17:00 +25°C° 0 mm 5 mps 763 mmHg 68%
    18:00 +23°C° 0 mm 5 mps 763 mmHg 72%
    19:00 +23°C° 0 mm 4 mps 764 mmHg 77%
    20:00 +22°C° 0 mm 4 mps 764 mmHg 79%
    21:00 +22°C° 0 mm 4 mps 764 mmHg 81%
    22:00 +22°C° 0 mm 4 mps 764 mmHg 83%
    23:00 +21°C° 0 mm 4 mps 763 mmHg 85%

    22 January, Monday

    Time Temperature Precipitation Wind Pressure Humidity
    00:00 +21°C° 0 mm 4 mps 763 mmHg 87%
    01:00 +21°C° 0 mm 4 mps 763 mmHg 90%
    02:00 +21°C° 0 mm 3 mps 763 mmHg 90%
    03:00 +21°C° 0 mm 3 mps 762 mmHg 91%
    04:00 +21°C° 0 mm 3 mps 762 mmHg 92%
    05:00 +21°C° 0 mm 3 mps 762 mmHg 92%
    06:00 +21°C° 0 mm 3 mps 763 mmHg 92%
    07:00 +21°C° 0 mm 3 mps 763 mmHg 93%
    08:00 +22°C° 0 mm 4 mps 763 mmHg 85%
    09:00 +25°C° 0 mm 4 mps 764 mmHg 78%
    10:00 +26°C° 0 mm 4 mps 764 mmHg 70%
    11:00 +27°C° 0 mm 4 mps 763 mmHg 67%
    12:00 +28°C° 0 mm 4 mps 763 mmHg 64%
    13:00 +29°C° 0 mm 4 mps 762 mmHg 61%
    14:00 +29°C° 0 mm 4 mps 762 mmHg 62%
    15:00 +28°C° 0 mm 4 mps 762 mmHg 62%
    16:00 +28°C° 0 mm 4 mps 761 mmHg 63%
    17:00 +27°C° 0.1 mm 4 mps 761 mmHg 69%
    18:00 +26°C° 0.1 mm 3 mps 762 mmHg 75%
    19:00 +25°C° 0.1 mm 3 mps 762 mmHg 81%
    20:00 +24°C° 0.2 mm 3 mps 762 mmHg 83%
    21:00 +24°C° 0.2 mm 3 mps 762 mmHg 85%
    22:00 +24°C° 0.2 mm 3 mps 763 mmHg 87%
    23:00 +23°C° 0.6 mm 2 mps 762 mmHg 89%
    Show more